Year,Month,Day,Hour,Minute,Value (Times are PST for temperature in C)
2010,08,13,00,00,15.90
2010,08,13,00,01,16.00
2010,08,13,00,02,16.00
2010,08,13,00,03,16.00
2010,08,13,00,04,16.00
2010,08,13,00,05,16.10
2010,08,13,00,06,16.10
2010,08,13,00,07,16.10
2010,08,13,00,08,16.10
2010,08,13,00,09,16.20
2010,08,13,00,10,16.20
2010,08,13,00,11,16.20
2010,08,13,00,12,16.20
2010,08,13,00,13,16.20
2010,08,13,00,14,16.20
2010,08,13,00,15,16.20
2010,08,13,00,16,16.20
2010,08,13,00,17,16.20
2010,08,13,00,18,16.20
2010,08,13,00,19,16.20
2010,08,13,00,20,16.20
2010,08,13,00,21,16.20
2010,08,13,00,22,16.20
2010,08,13,00,23,16.20
2010,08,13,00,24,16.10
2010,08,13,00,25,16.10
2010,08,13,00,26,16.10
2010,08,13,00,27,16.10
2010,08,13,00,28,16.10
2010,08,13,00,29,16.10
2010,08,13,00,30,16.10
2010,08,13,00,31,16.10
2010,08,13,00,32,16.10
2010,08,13,00,33,16.10
2010,08,13,00,34,16.00
2010,08,13,00,35,16.00
2010,08,13,00,36,16.00
2010,08,13,00,37,16.00
2010,08,13,00,38,16.00
2010,08,13,00,39,16.00
2010,08,13,00,40,16.00
2010,08,13,00,41,16.00
2010,08,13,00,42,16.00
2010,08,13,00,43,16.00
2010,08,13,00,44,15.90
2010,08,13,00,45,15.90
2010,08,13,00,46,15.90
2010,08,13,00,47,15.90
2010,08,13,00,48,15.90
2010,08,13,00,49,15.90
2010,08,13,00,50,15.90
2010,08,13,00,51,15.90
2010,08,13,00,52,15.90
2010,08,13,00,53,15.90
2010,08,13,00,54,15.90
2010,08,13,00,55,15.90
2010,08,13,00,56,15.90
2010,08,13,00,57,15.90
2010,08,13,00,58,15.90
2010,08,13,00,59,15.90
2010,08,13,01,00,15.90
2010,08,13,01,01,15.80
2010,08,13,01,02,15.80
2010,08,13,01,03,15.80
2010,08,13,01,04,15.80
2010,08,13,01,05,15.80
2010,08,13,01,06,15.80
2010,08,13,01,07,15.70
2010,08,13,01,08,15.70
2010,08,13,01,09,15.70
2010,08,13,01,10,15.70
2010,08,13,01,11,15.60
2010,08,13,01,12,15.60
2010,08,13,01,13,15.60
2010,08,13,01,14,15.50
2010,08,13,01,15,15.40
2010,08,13,01,16,15.40
2010,08,13,01,17,15.40
2010,08,13,01,18,15.30
2010,08,13,01,19,15.30
2010,08,13,01,20,15.30
2010,08,13,01,21,15.30
2010,08,13,01,22,15.30
2010,08,13,01,23,15.20
2010,08,13,01,24,15.20
2010,08,13,01,25,15.20
2010,08,13,01,26,15.20
2010,08,13,01,27,15.10
2010,08,13,01,28,15.10
2010,08,13,01,29,15.10
2010,08,13,01,30,15.00
2010,08,13,01,31,15.00
2010,08,13,01,32,15.00
2010,08,13,01,33,14.90
2010,08,13,01,34,14.90
2010,08,13,01,35,14.90
2010,08,13,01,36,14.80
2010,08,13,01,37,14.80
2010,08,13,01,38,14.80
2010,08,13,01,39,14.80
2010,08,13,01,40,14.70
2010,08,13,01,41,14.70
2010,08,13,01,42,14.70
2010,08,13,01,43,14.70
2010,08,13,01,44,14.60
2010,08,13,01,45,14.60
2010,08,13,01,46,14.60
2010,08,13,01,47,14.50
2010,08,13,01,48,14.50
2010,08,13,01,49,14.40
2010,08,13,01,50,14.40
2010,08,13,01,51,14.40
2010,08,13,01,52,14.40
2010,08,13,01,53,14.30
2010,08,13,01,54,14.30
2010,08,13,01,55,14.30
2010,08,13,01,56,14.30
2010,08,13,01,57,14.30
2010,08,13,01,58,14.20
2010,08,13,01,59,14.20
2010,08,13,02,00,14.20
2010,08,13,02,01,14.20
2010,08,13,02,02,14.10
2010,08,13,02,03,14.10
2010,08,13,02,04,14.10
2010,08,13,02,05,14.00
2010,08,13,02,06,14.00
2010,08,13,02,07,14.00
2010,08,13,02,08,13.90
2010,08,13,02,09,13.90
2010,08,13,02,10,13.90
2010,08,13,02,11,13.80
2010,08,13,02,12,13.80
2010,08,13,02,13,13.80
2010,08,13,02,14,13.70
2010,08,13,02,15,13.70
2010,08,13,02,16,13.70
2010,08,13,02,17,13.70
2010,08,13,02,18,13.70
2010,08,13,02,19,13.60
2010,08,13,02,20,13.60
2010,08,13,02,21,13.60
2010,08,13,02,22,13.60
2010,08,13,02,23,13.60
2010,08,13,02,24,13.60
2010,08,13,02,25,13.60
2010,08,13,02,26,13.60
2010,08,13,02,27,13.60
2010,08,13,02,28,13.70
2010,08,13,02,29,13.70
2010,08,13,02,30,13.70
2010,08,13,02,31,13.70
2010,08,13,02,32,13.70
2010,08,13,02,33,13.70
2010,08,13,02,34,13.70
2010,08,13,02,35,13.70
2010,08,13,02,36,13.70
2010,08,13,02,37,13.70
2010,08,13,02,38,13.80
2010,08,13,02,39,13.80
2010,08,13,02,40,13.80
2010,08,13,02,41,13.80
2010,08,13,02,42,13.80
2010,08,13,02,43,13.90
2010,08,13,02,44,13.90
2010,08,13,02,45,13.90
2010,08,13,02,46,13.90
2010,08,13,02,47,13.90
2010,08,13,02,48,14.00
2010,08,13,02,49,14.00
2010,08,13,02,50,14.00
2010,08,13,02,51,14.00
2010,08,13,02,52,14.10
2010,08,13,02,53,14.10
2010,08,13,02,54,14.10
2010,08,13,02,55,14.20
2010,08,13,02,56,14.20
2010,08,13,02,57,14.20
2010,08,13,02,58,14.20
2010,08,13,02,59,14.20
2010,08,13,03,00,14.20
2010,08,13,03,01,14.20
2010,08,13,03,02,14.20
2010,08,13,03,03,14.20
2010,08,13,03,04,14.20
2010,08,13,03,05,14.20
2010,08,13,03,06,14.20
2010,08,13,03,07,14.20
2010,08,13,03,08,14.20
2010,08,13,03,09,14.30
2010,08,13,03,10,14.30
2010,08,13,03,11,14.30
2010,08,13,03,12,14.30
2010,08,13,03,13,14.30
2010,08,13,03,14,14.30
2010,08,13,03,15,14.30
2010,08,13,03,16,14.30
2010,08,13,03,17,14.20
2010,08,13,03,18,14.20
2010,08,13,03,19,14.20
2010,08,13,03,20,14.20
2010,08,13,03,21,14.30
2010,08,13,03,22,14.30
2010,08,13,03,23,14.30
2010,08,13,03,24,14.30
2010,08,13,03,25,14.30
2010,08,13,03,26,14.40
2010,08,13,03,27,14.40
2010,08,13,03,28,14.40
2010,08,13,03,29,14.40
2010,08,13,03,30,14.50
2010,08,13,03,31,14.50
2010,08,13,03,32,14.50
2010,08,13,03,33,14.50
2010,08,13,03,34,14.60
2010,08,13,03,35,14.60
2010,08,13,03,36,14.60
2010,08,13,03,37,14.50
2010,08,13,03,38,14.50
2010,08,13,03,39,14.50
2010,08,13,03,40,14.50
2010,08,13,03,41,14.40
2010,08,13,03,42,14.40
2010,08,13,03,43,14.40
2010,08,13,03,44,14.30
2010,08,13,03,45,14.30
2010,08,13,03,46,14.30
2010,08,13,03,47,14.30
2010,08,13,03,48,14.20
2010,08,13,03,49,14.20
2010,08,13,03,50,14.20
2010,08,13,03,51,14.20
2010,08,13,03,52,14.20
2010,08,13,03,53,14.20
2010,08,13,03,54,14.20
2010,08,13,03,55,14.20
2010,08,13,03,56,14.20
2010,08,13,03,57,14.20
2010,08,13,03,58,14.20
2010,08,13,03,59,14.10
2010,08,13,04,00,14.10
2010,08,13,04,01,14.20
2010,08,13,04,02,14.20
2010,08,13,04,03,14.10
2010,08,13,04,04,14.20
2010,08,13,04,05,14.20
2010,08,13,04,06,14.20
2010,08,13,04,07,14.20
2010,08,13,04,08,14.20
2010,08,13,04,09,14.20
2010,08,13,04,10,14.20
2010,08,13,04,11,14.30
2010,08,13,04,12,14.30
2010,08,13,04,13,14.30
2010,08,13,04,14,14.30
2010,08,13,04,15,14.30
2010,08,13,04,16,14.30
2010,08,13,04,17,14.30
2010,08,13,04,18,14.30
2010,08,13,04,19,14.30
2010,08,13,04,20,14.40
2010,08,13,04,21,14.40
2010,08,13,04,22,14.30
2010,08,13,04,23,14.30
2010,08,13,04,24,14.30
2010,08,13,04,25,14.30
2010,08,13,04,26,14.30
2010,08,13,04,27,14.30
2010,08,13,04,28,14.30
2010,08,13,04,29,14.30
2010,08,13,04,30,14.30
2010,08,13,04,31,14.30
2010,08,13,04,32,14.30
2010,08,13,04,33,14.30
2010,08,13,04,34,14.30
2010,08,13,04,35,14.30
2010,08,13,04,36,14.20
2010,08,13,04,37,14.20
2010,08,13,04,38,14.20
2010,08,13,04,39,14.30
2010,08,13,04,40,14.30
2010,08,13,04,41,14.30
2010,08,13,04,42,14.30
2010,08,13,04,43,14.30
2010,08,13,04,44,14.30
2010,08,13,04,45,14.30
2010,08,13,04,46,14.30
2010,08,13,04,47,14.30
2010,08,13,04,48,14.30
2010,08,13,04,49,14.30
2010,08,13,04,50,14.30
2010,08,13,04,51,14.40
2010,08,13,04,52,14.40
2010,08,13,04,53,14.50
2010,08,13,04,54,14.50
2010,08,13,04,55,14.60
2010,08,13,04,56,14.60
2010,08,13,04,57,14.60
2010,08,13,04,58,14.70
2010,08,13,04,59,14.70
2010,08,13,05,00,14.80
2010,08,13,05,01,14.80
2010,08,13,05,02,14.80
2010,08,13,05,03,14.80
2010,08,13,05,04,14.80
2010,08,13,05,05,14.80
2010,08,13,05,06,14.70
2010,08,13,05,07,14.70
2010,08,13,05,08,14.70
2010,08,13,05,09,14.60
2010,08,13,05,10,14.60
2010,08,13,05,11,14.60
2010,08,13,05,12,14.50
2010,08,13,05,13,14.50
2010,08,13,05,14,14.50
2010,08,13,05,15,14.50
2010,08,13,05,16,14.50
2010,08,13,05,17,14.50
2010,08,13,05,18,14.40
2010,08,13,05,19,14.40
2010,08,13,05,20,14.40
2010,08,13,05,21,14.40
2010,08,13,05,22,14.40
2010,08,13,05,23,14.40
2010,08,13,05,24,14.40
2010,08,13,05,25,14.40
2010,08,13,05,26,14.40
2010,08,13,05,27,14.40
2010,08,13,05,28,14.40
2010,08,13,05,29,14.40
2010,08,13,05,30,14.40
2010,08,13,05,31,14.40
2010,08,13,05,32,14.40
2010,08,13,05,33,14.40
2010,08,13,05,34,14.40
2010,08,13,05,35,14.30
2010,08,13,05,36,14.30
2010,08,13,05,37,14.30
2010,08,13,05,38,14.30
2010,08,13,05,39,14.30
2010,08,13,05,40,14.20
2010,08,13,05,41,14.20
2010,08,13,05,42,14.20
2010,08,13,05,43,14.20
2010,08,13,05,44,14.20
2010,08,13,05,45,14.10
2010,08,13,05,46,14.10
2010,08,13,05,47,14.10
2010,08,13,05,48,14.10
2010,08,13,05,49,14.10
2010,08,13,05,50,14.10
2010,08,13,05,51,14.10
2010,08,13,05,52,14.00
2010,08,13,05,53,14.00
2010,08,13,05,54,14.00
2010,08,13,05,55,14.00
2010,08,13,05,56,13.90
2010,08,13,05,57,13.90
2010,08,13,05,58,13.90
2010,08,13,05,59,13.90
2010,08,13,06,00,13.90
2010,08,13,06,01,13.90
2010,08,13,06,02,13.90
2010,08,13,06,03,13.90
2010,08,13,06,04,13.90
2010,08,13,06,05,13.90
2010,08,13,06,06,13.90
2010,08,13,06,07,13.90
2010,08,13,06,08,13.90
2010,08,13,06,09,13.90
2010,08,13,06,10,13.80
2010,08,13,06,11,13.80
2010,08,13,06,12,13.80
2010,08,13,06,13,13.80
2010,08,13,06,14,13.90
2010,08,13,06,15,13.90
2010,08,13,06,16,13.80
2010,08,13,06,17,13.80
2010,08,13,06,18,13.80
2010,08,13,06,19,13.80
2010,08,13,06,20,13.80
2010,08,13,06,21,13.80
2010,08,13,06,22,13.80
2010,08,13,06,23,13.90
2010,08,13,06,24,13.90
2010,08,13,06,25,13.90
2010,08,13,06,26,13.90
2010,08,13,06,27,13.90
2010,08,13,06,28,14.00
2010,08,13,06,29,14.00
2010,08,13,06,30,14.00
2010,08,13,06,31,14.10
2010,08,13,06,32,14.10
2010,08,13,06,33,14.10
2010,08,13,06,34,14.10
2010,08,13,06,35,14.10
2010,08,13,06,36,14.10
2010,08,13,06,37,14.10
2010,08,13,06,38,14.10
2010,08,13,06,39,14.10
2010,08,13,06,40,14.10
2010,08,13,06,41,14.10
2010,08,13,06,42,14.10
2010,08,13,06,43,14.10
2010,08,13,06,44,14.20
2010,08,13,06,45,14.20
2010,08,13,06,46,14.20
2010,08,13,06,47,14.30
2010,08,13,06,48,14.30
2010,08,13,06,49,14.40
2010,08,13,06,50,14.40
2010,08,13,06,51,14.50
2010,08,13,06,52,14.50
2010,08,13,06,53,14.60
2010,08,13,06,54,14.60
2010,08,13,06,55,14.60
2010,08,13,06,56,14.60
2010,08,13,06,57,14.70
2010,08,13,06,58,14.70
2010,08,13,06,59,14.70
2010,08,13,07,00,14.70
2010,08,13,07,01,14.70
2010,08,13,07,02,14.70
2010,08,13,07,03,14.80
2010,08,13,07,04,14.80
2010,08,13,07,05,14.80
2010,08,13,07,06,14.80
2010,08,13,07,07,14.80
2010,08,13,07,08,14.80
2010,08,13,07,09,14.90
2010,08,13,07,10,14.90
2010,08,13,07,11,14.90
2010,08,13,07,12,14.90
2010,08,13,07,13,15.00
2010,08,13,07,14,15.00
2010,08,13,07,15,15.10
2010,08,13,07,16,15.10
2010,08,13,07,17,15.20
2010,08,13,07,18,15.20
2010,08,13,07,19,15.20
2010,08,13,07,20,15.20
2010,08,13,07,21,15.20
2010,08,13,07,22,15.30
2010,08,13,07,23,15.30
2010,08,13,07,24,15.30
2010,08,13,07,25,15.30
2010,08,13,07,26,15.30
2010,08,13,07,27,15.30
2010,08,13,07,28,15.30
2010,08,13,07,29,15.40
2010,08,13,07,30,15.40
2010,08,13,07,31,15.40
2010,08,13,07,32,15.40
2010,08,13,07,33,15.40
2010,08,13,07,34,15.40
2010,08,13,07,35,15.50
2010,08,13,07,36,15.50
2010,08,13,07,37,15.60
2010,08,13,07,38,15.60
2010,08,13,07,39,15.70
2010,08,13,07,40,15.70
2010,08,13,07,41,15.80
2010,08,13,07,42,15.80
2010,08,13,07,43,15.80
2010,08,13,07,44,15.90
2010,08,13,07,45,15.90
2010,08,13,07,46,16.00
2010,08,13,07,47,16.00
2010,08,13,07,48,16.00
2010,08,13,07,49,16.10
2010,08,13,07,50,16.20
2010,08,13,07,51,16.20
2010,08,13,07,52,16.30
2010,08,13,07,53,16.30
2010,08,13,07,54,16.30
2010,08,13,07,55,16.40
2010,08,13,07,56,16.40
2010,08,13,07,57,16.50
2010,08,13,07,58,16.50
2010,08,13,07,59,16.60
2010,08,13,08,00,16.60
2010,08,13,08,01,16.70
2010,08,13,08,02,16.70
2010,08,13,08,03,16.70
2010,08,13,08,04,16.80
2010,08,13,08,05,16.80
2010,08,13,08,06,16.80
2010,08,13,08,07,16.90
2010,08,13,08,08,16.90
2010,08,13,08,09,17.00
2010,08,13,08,10,17.00
2010,08,13,08,11,17.00
2010,08,13,08,12,17.10
2010,08,13,08,13,17.10
2010,08,13,08,14,17.20
2010,08,13,08,15,17.20
2010,08,13,08,16,17.30
2010,08,13,08,17,17.30
2010,08,13,08,18,17.40
2010,08,13,08,19,17.50
2010,08,13,08,20,17.50
2010,08,13,08,21,17.60
2010,08,13,08,22,17.70
2010,08,13,08,23,17.80
2010,08,13,08,24,17.80
2010,08,13,08,25,17.90
2010,08,13,08,26,17.90
2010,08,13,08,27,17.90
2010,08,13,08,28,18.00
2010,08,13,08,29,18.10
2010,08,13,08,30,18.10
2010,08,13,08,31,18.20
2010,08,13,08,32,18.20
2010,08,13,08,33,18.30
2010,08,13,08,34,18.40
2010,08,13,08,35,18.50
2010,08,13,08,36,18.60
2010,08,13,08,37,18.70
2010,08,13,08,38,18.70
2010,08,13,08,39,18.80
2010,08,13,08,40,18.90
2010,08,13,08,41,19.00
2010,08,13,08,42,19.00
2010,08,13,08,43,19.10
2010,08,13,08,44,19.20
2010,08,13,08,45,19.30
2010,08,13,08,46,19.40
2010,08,13,08,47,19.40
2010,08,13,08,48,19.50
2010,08,13,08,49,19.50
2010,08,13,08,50,19.60
2010,08,13,08,51,19.60
2010,08,13,08,52,19.70
2010,08,13,08,53,19.70
2010,08,13,08,54,19.70
2010,08,13,08,55,19.80
2010,08,13,08,56,19.80
2010,08,13,08,57,19.80
2010,08,13,08,58,19.80
2010,08,13,08,59,19.80
2010,08,13,09,00,19.80
2010,08,13,09,01,19.90
2010,08,13,09,02,19.90
2010,08,13,09,03,20.00
2010,08,13,09,04,20.00
2010,08,13,09,05,20.10
2010,08,13,09,06,20.10
2010,08,13,09,07,20.10
2010,08,13,09,08,20.20
2010,08,13,09,09,20.20
2010,08,13,09,10,20.20
2010,08,13,09,11,20.20
2010,08,13,09,12,20.20
2010,08,13,09,13,20.20
2010,08,13,09,14,20.20
2010,08,13,09,15,20.20
2010,08,13,09,16,20.20
2010,08,13,09,17,20.20
2010,08,13,09,18,20.20
2010,08,13,09,19,20.30
2010,08,13,09,20,20.30
2010,08,13,09,21,20.30
2010,08,13,09,22,20.40
2010,08,13,09,23,20.40
2010,08,13,09,24,20.50
2010,08,13,09,25,20.50
2010,08,13,09,26,20.60
2010,08,13,09,27,20.60
2010,08,13,09,28,20.70
2010,08,13,09,29,20.70
2010,08,13,09,30,20.80
2010,08,13,09,31,20.80
2010,08,13,09,32,20.90
2010,08,13,09,33,20.90
2010,08,13,09,34,20.90
2010,08,13,09,35,21.00
2010,08,13,09,36,21.00
2010,08,13,09,37,21.10
2010,08,13,09,38,21.10
2010,08,13,09,39,21.20
2010,08,13,09,40,21.20
2010,08,13,09,41,21.20
2010,08,13,09,42,21.30
2010,08,13,09,43,21.30
2010,08,13,09,44,21.30
2010,08,13,09,45,21.30
2010,08,13,09,46,21.30
2010,08,13,09,47,21.30
2010,08,13,09,48,21.30
2010,08,13,09,49,21.30
2010,08,13,09,50,21.40
2010,08,13,09,51,21.50
2010,08,13,09,52,21.50
2010,08,13,09,53,21.50
2010,08,13,09,54,21.50
2010,08,13,09,55,21.50
2010,08,13,09,56,21.50
2010,08,13,09,57,21.50
2010,08,13,09,58,21.60
2010,08,13,09,59,21.60
2010,08,13,10,00,21.60
2010,08,13,10,01,21.70
2010,08,13,10,02,21.70
2010,08,13,10,03,21.70
2010,08,13,10,04,21.80
2010,08,13,10,05,21.80
2010,08,13,10,06,21.90
2010,08,13,10,07,21.90
2010,08,13,10,08,22.00
2010,08,13,10,09,22.00
2010,08,13,10,10,22.10
2010,08,13,10,11,22.20
2010,08,13,10,12,22.20
2010,08,13,10,13,22.30
2010,08,13,10,14,22.30
2010,08,13,10,15,22.30
2010,08,13,10,16,22.30
2010,08,13,10,17,22.30
2010,08,13,10,18,22.30
2010,08,13,10,19,22.30
2010,08,13,10,20,22.30
2010,08,13,10,21,22.30
2010,08,13,10,22,22.40
2010,08,13,10,23,22.40
2010,08,13,10,24,22.50
2010,08,13,10,25,22.50
2010,08,13,10,26,22.60
2010,08,13,10,27,22.60
2010,08,13,10,28,22.60
2010,08,13,10,29,22.60
2010,08,13,10,30,22.60
2010,08,13,10,31,22.60
2010,08,13,10,32,22.50
2010,08,13,10,33,22.50
2010,08,13,10,34,22.40
2010,08,13,10,35,22.40
2010,08,13,10,36,22.40
2010,08,13,10,37,22.40
2010,08,13,10,38,22.40
2010,08,13,10,39,22.40
2010,08,13,10,40,22.40
2010,08,13,10,41,22.40
2010,08,13,10,42,22.30
2010,08,13,10,43,22.30
2010,08,13,10,44,22.30
2010,08,13,10,45,22.30
2010,08,13,10,46,22.40
2010,08,13,10,47,22.40
2010,08,13,10,48,22.40
2010,08,13,10,49,22.50
2010,08,13,10,50,22.50
2010,08,13,10,51,22.50
2010,08,13,10,52,22.50
2010,08,13,10,53,22.60
2010,08,13,10,54,22.60
2010,08,13,10,55,22.60
2010,08,13,10,56,22.80
2010,08,13,10,57,22.80
2010,08,13,10,58,23.00
2010,08,13,10,59,23.10
2010,08,13,11,00,23.20
2010,08,13,11,01,23.30
2010,08,13,11,02,23.30
2010,08,13,11,03,23.20
2010,08,13,11,04,23.20
2010,08,13,11,05,23.20
2010,08,13,11,06,23.20
2010,08,13,11,07,23.20
2010,08,13,11,08,23.10
2010,08,13,11,09,23.10
2010,08,13,11,10,23.10
2010,08,13,11,11,23.10
2010,08,13,11,12,23.10
2010,08,13,11,13,23.10
2010,08,13,11,14,23.10
2010,08,13,11,15,23.10
2010,08,13,11,16,23.10
2010,08,13,11,17,23.10
2010,08,13,11,18,23.10
2010,08,13,11,19,23.10
2010,08,13,11,20,23.20
2010,08,13,11,21,23.20
2010,08,13,11,22,23.30
2010,08,13,11,23,23.30
2010,08,13,11,24,23.30
2010,08,13,11,25,23.30
2010,08,13,11,26,23.40
2010,08,13,11,27,23.50
2010,08,13,11,28,23.50
2010,08,13,11,29,23.60
2010,08,13,11,30,23.70
2010,08,13,11,31,23.70
2010,08,13,11,32,23.70
2010,08,13,11,33,23.70
2010,08,13,11,34,23.80
2010,08,13,11,35,23.80
2010,08,13,11,36,23.90
2010,08,13,11,37,24.00
2010,08,13,11,38,24.00
2010,08,13,11,39,24.10
2010,08,13,11,40,24.10
2010,08,13,11,41,24.10
2010,08,13,11,42,24.10
2010,08,13,11,43,24.10
2010,08,13,11,44,24.10
2010,08,13,11,45,24.10
2010,08,13,11,46,24.10
2010,08,13,11,47,24.10
2010,08,13,11,48,24.10
2010,08,13,11,49,24.10
2010,08,13,11,50,24.20
2010,08,13,11,51,24.20
2010,08,13,11,52,24.30
2010,08,13,11,53,24.30
2010,08,13,11,54,24.20
2010,08,13,11,55,24.30
2010,08,13,11,56,24.20
2010,08,13,11,57,24.20
2010,08,13,11,58,24.20
2010,08,13,11,59,24.10
2010,08,13,12,00,24.10
2010,08,13,12,01,24.10
2010,08,13,12,02,24.20
2010,08,13,12,03,24.20
2010,08,13,12,04,24.20
2010,08,13,12,05,24.30
2010,08,13,12,06,24.30
2010,08,13,12,07,24.50
2010,08,13,12,08,24.60
2010,08,13,12,09,24.70
2010,08,13,12,10,24.80
2010,08,13,12,11,24.90
2010,08,13,12,12,25.00
2010,08,13,12,13,25.10
2010,08,13,12,14,25.20
2010,08,13,12,15,25.30
2010,08,13,12,16,25.30
2010,08,13,12,17,25.30
2010,08,13,12,18,25.40
2010,08,13,12,19,25.40
2010,08,13,12,20,25.40
2010,08,13,12,21,25.50
2010,08,13,12,22,25.50
2010,08,13,12,23,25.40
2010,08,13,12,24,25.40
2010,08,13,12,25,25.40
2010,08,13,12,26,25.40
2010,08,13,12,27,25.50
2010,08,13,12,28,25.60
2010,08,13,12,29,25.60
2010,08,13,12,30,25.70
2010,08,13,12,31,25.70
2010,08,13,12,32,25.70
2010,08,13,12,33,25.70
2010,08,13,12,34,25.70
2010,08,13,12,35,25.80
2010,08,13,12,36,25.90
2010,08,13,12,37,25.90
2010,08,13,12,38,25.90
2010,08,13,12,39,26.00
2010,08,13,12,40,26.00
2010,08,13,12,41,26.00
2010,08,13,12,42,26.00
2010,08,13,12,43,26.00
2010,08,13,12,44,26.10
2010,08,13,12,45,26.10
2010,08,13,12,46,26.20
2010,08,13,12,47,26.30
2010,08,13,12,48,26.30
2010,08,13,12,49,26.40
2010,08,13,12,50,26.50
2010,08,13,12,51,26.60
2010,08,13,12,52,26.60
2010,08,13,12,53,26.60
2010,08,13,12,54,26.70
2010,08,13,12,55,26.70
2010,08,13,12,56,26.70
2010,08,13,12,57,26.70
2010,08,13,12,58,26.70
2010,08,13,12,59,26.70
2010,08,13,13,00,26.70
2010,08,13,13,01,26.70
2010,08,13,13,02,26.70
2010,08,13,13,03,26.80
2010,08,13,13,04,26.90
2010,08,13,13,05,27.00
2010,08,13,13,06,27.10
2010,08,13,13,07,27.10
2010,08,13,13,08,27.00
2010,08,13,13,09,26.90
2010,08,13,13,10,26.80
2010,08,13,13,11,26.70
2010,08,13,13,12,26.80
2010,08,13,13,13,26.80
2010,08,13,13,14,26.80
2010,08,13,13,15,26.80
2010,08,13,13,16,26.90
2010,08,13,13,17,26.90
2010,08,13,13,18,26.80
2010,08,13,13,19,26.80
2010,08,13,13,20,26.80
2010,08,13,13,21,26.80
2010,08,13,13,22,26.90
2010,08,13,13,23,26.90
2010,08,13,13,24,27.00
2010,08,13,13,25,27.10
2010,08,13,13,26,27.20
2010,08,13,13,27,27.30
2010,08,13,13,28,27.40
2010,08,13,13,29,27.40
2010,08,13,13,30,27.50
2010,08,13,13,31,27.50
2010,08,13,13,32,27.40
2010,08,13,13,33,27.30
2010,08,13,13,34,27.20
2010,08,13,13,35,27.30
2010,08,13,13,36,27.30
2010,08,13,13,37,27.20
2010,08,13,13,38,27.20
2010,08,13,13,39,27.20
2010,08,13,13,40,27.20
2010,08,13,13,41,27.30
2010,08,13,13,42,27.40
2010,08,13,13,43,27.40
2010,08,13,13,44,27.50
2010,08,13,13,45,27.50
2010,08,13,13,46,27.40
2010,08,13,13,47,27.40
2010,08,13,13,48,27.30
2010,08,13,13,49,27.30
2010,08,13,13,50,27.30
2010,08,13,13,51,27.30
2010,08,13,13,52,27.30
2010,08,13,13,53,27.30
2010,08,13,13,54,27.30
2010,08,13,13,55,27.30
2010,08,13,13,56,27.20
2010,08,13,13,57,27.30
2010,08,13,13,58,27.30
2010,08,13,13,59,27.30
2010,08,13,14,00,27.40
2010,08,13,14,01,27.40
2010,08,13,14,02,27.50
2010,08,13,14,03,27.50
2010,08,13,14,04,27.50
2010,08,13,14,05,27.50
2010,08,13,14,06,27.50
2010,08,13,14,07,27.50
2010,08,13,14,08,27.50
2010,08,13,14,09,27.60
2010,08,13,14,10,27.60
2010,08,13,14,11,27.50
2010,08,13,14,12,27.50
2010,08,13,14,13,27.50
2010,08,13,14,14,27.50
2010,08,13,14,15,27.40
2010,08,13,14,16,27.40
2010,08,13,14,17,27.50
2010,08,13,14,18,27.50
2010,08,13,14,19,27.50
2010,08,13,14,20,27.50
2010,08,13,14,21,27.60
2010,08,13,14,22,27.60
2010,08,13,14,23,27.60
2010,08,13,14,24,27.60
2010,08,13,14,25,27.70
2010,08,13,14,26,27.70
2010,08,13,14,27,27.80
2010,08,13,14,28,27.70
2010,08,13,14,29,27.70
2010,08,13,14,30,27.70
2010,08,13,14,31,27.70
2010,08,13,14,32,27.80
2010,08,13,14,33,27.90
2010,08,13,14,34,28.00
2010,08,13,14,35,28.10
2010,08,13,14,36,28.10
2010,08,13,14,37,28.10
2010,08,13,14,38,28.10
2010,08,13,14,39,28.20
2010,08,13,14,40,28.20
2010,08,13,14,41,28.30
2010,08,13,14,42,28.40
2010,08,13,14,43,28.40
2010,08,13,14,44,28.50
2010,08,13,14,45,28.40
2010,08,13,14,46,28.50
2010,08,13,14,47,28.50
2010,08,13,14,48,28.60
2010,08,13,14,49,28.60
2010,08,13,14,50,28.60
2010,08,13,14,51,28.60
2010,08,13,14,52,28.60
2010,08,13,14,53,28.60
2010,08,13,14,54,28.70
2010,08,13,14,55,28.70
2010,08,13,14,56,28.80
2010,08,13,14,57,28.80
2010,08,13,14,58,28.90
2010,08,13,14,59,29.00
2010,08,13,15,00,29.10
2010,08,13,15,01,29.10
2010,08,13,15,02,29.10
2010,08,13,15,03,29.10
2010,08,13,15,04,29.20
2010,08,13,15,05,29.20
2010,08,13,15,06,29.20
2010,08,13,15,07,29.20
2010,08,13,15,08,29.20
2010,08,13,15,09,29.30
2010,08,13,15,10,29.30
2010,08,13,15,11,29.30
2010,08,13,15,12,29.40
2010,08,13,15,13,29.40
2010,08,13,15,14,29.50
2010,08,13,15,15,29.50
2010,08,13,15,16,29.60
2010,08,13,15,17,29.60
2010,08,13,15,18,29.60
2010,08,13,15,19,29.70
2010,08,13,15,20,29.70
2010,08,13,15,21,29.70
2010,08,13,15,22,29.60
2010,08,13,15,23,29.50
2010,08,13,15,24,29.40
2010,08,13,15,25,29.40
2010,08,13,15,26,29.40
2010,08,13,15,27,29.40
2010,08,13,15,28,29.40
2010,08,13,15,29,29.30
2010,08,13,15,30,28.90
2010,08,13,15,31,28.50
2010,08,13,15,32,28.20
2010,08,13,15,33,28.00
2010,08,13,15,34,27.90
2010,08,13,15,35,27.70
2010,08,13,15,36,27.50
2010,08,13,15,37,27.30
2010,08,13,15,38,27.10
2010,08,13,15,39,27.10
2010,08,13,15,40,27.00
2010,08,13,15,41,26.90
2010,08,13,15,42,26.70
2010,08,13,15,43,26.60
2010,08,13,15,44,26.60
2010,08,13,15,45,26.50
2010,08,13,15,46,26.60
2010,08,13,15,47,26.60
2010,08,13,15,48,26.70
2010,08,13,15,49,26.80
2010,08,13,15,50,27.00
2010,08,13,15,51,27.10
2010,08,13,15,52,27.20
2010,08,13,15,53,27.20
2010,08,13,15,54,27.20
2010,08,13,15,55,27.20
2010,08,13,15,56,27.20
2010,08,13,15,57,27.10
2010,08,13,15,58,27.00
2010,08,13,15,59,26.80
2010,08,13,16,00,26.60
2010,08,13,16,01,26.40
2010,08,13,16,02,26.20
2010,08,13,16,03,26.00
2010,08,13,16,04,25.90
2010,08,13,16,05,25.80
2010,08,13,16,06,25.70
2010,08,13,16,07,25.70
2010,08,13,16,08,25.70
2010,08,13,16,09,25.60
2010,08,13,16,10,25.70
2010,08,13,16,11,25.70
2010,08,13,16,12,25.80
2010,08,13,16,13,25.80
2010,08,13,16,14,25.90
2010,08,13,16,15,26.10
2010,08,13,16,16,26.30
2010,08,13,16,17,26.40
2010,08,13,16,18,26.60
2010,08,13,16,19,26.80
2010,08,13,16,20,26.90
2010,08,13,16,21,27.00
2010,08,13,16,22,27.00
2010,08,13,16,23,27.00
2010,08,13,16,24,26.90
2010,08,13,16,25,26.90
2010,08,13,16,26,26.90
2010,08,13,16,27,26.90
2010,08,13,16,28,27.00
2010,08,13,16,29,26.90
2010,08,13,16,30,26.90
2010,08,13,16,31,26.80
2010,08,13,16,32,26.70
2010,08,13,16,33,26.70
2010,08,13,16,34,26.70
2010,08,13,16,35,26.70
2010,08,13,16,36,26.80
2010,08,13,16,37,26.80
2010,08,13,16,38,26.80
2010,08,13,16,39,26.90
2010,08,13,16,40,26.90
2010,08,13,16,41,27.00
2010,08,13,16,42,27.00
2010,08,13,16,43,27.00
2010,08,13,16,44,27.00
2010,08,13,16,45,27.00
2010,08,13,16,46,26.90
2010,08,13,16,47,26.80
2010,08,13,16,48,26.70
2010,08,13,16,49,26.60
2010,08,13,16,50,26.50
2010,08,13,16,51,26.40
2010,08,13,16,52,26.40
2010,08,13,16,53,26.40
2010,08,13,16,54,26.40
2010,08,13,16,55,26.40
2010,08,13,16,56,26.40
2010,08,13,16,57,26.40
2010,08,13,16,58,26.50
2010,08,13,16,59,26.60
2010,08,13,17,00,26.70
2010,08,13,17,01,26.80
2010,08,13,17,02,26.90
2010,08,13,17,03,26.90
2010,08,13,17,04,26.90
2010,08,13,17,05,27.00
2010,08,13,17,06,27.10
2010,08,13,17,07,27.20
2010,08,13,17,08,27.40
2010,08,13,17,09,27.40
2010,08,13,17,10,27.40
2010,08,13,17,11,27.50
2010,08,13,17,12,27.50
2010,08,13,17,13,27.60
2010,08,13,17,14,27.60
2010,08,13,17,15,27.70
2010,08,13,17,16,27.70
2010,08,13,17,17,27.80
2010,08,13,17,18,27.80
2010,08,13,17,19,27.80